Location: Ch�tillon
(48.8024°N, 2.2935°E)
Time: 01:49:12
(UTC+00:00)

Oscar 19 - Visible Passes

Search period start: 30 June 2022 00:00
Search period end: 10 July 2022 00:00
Orbit: 772 x 790 km, 98.8° (Epoch: 29 June)

Date Brightness Start Highest point End Pass type
(mag) Time Alt. Az. Time Alt. Az. Time Alt. Az.
30 Jun 12.4 02:38:32 10° NE 02:42:58 29° E 02:47:23 10° SSE visible
01 Jul 13.1 02:07:32 10° NE 02:10:35 16° E 02:13:37 10° SE visible
03 Jul 12.3 02:41:42 10° NNE 02:46:13 30° E 02:50:42 10° SSE visible
04 Jul 13.0 02:10:36 10° NE 02:13:50 17° E 02:17:04 10° SE visible
06 Jul 12.2 02:44:52 10° NNE 02:49:28 32° E 02:54:01 10° SSE visible
07 Jul 13.0 02:13:42 10° NE 02:17:06 18° E 02:20:29 10° SE visible
09 Jul 12.1 02:48:02 10° NNE 02:52:42 34° E 02:57:20 10° SSE visible
